Temperature
14 14 14 14 14 14 15 15 15 15 15 15 15 15 15 15 15 15 16 16 16 16 16 16 16 16 16 16 16 16 16 15 15 15 15 15 15 15 15 15 15 15 15
14 14 14 14 14 14 14 15 15 15 15 15 15 15 15 15 15 15 15 16 15 15 15 15 15 15 15 16 15 15 15 15 15 15 15 15 15 15 15 15 15 15 15
14 14 14 14 14 14 14 14 15 15 14 14 15 15 15 15 15 15 15 15 15 15 15 15 15 15 15 15 15 15 15 15 15 15 15 15 15 15 14 14 14 15 15
13 13 14 14 14 14 14 14 14 14 14 14 14 14 14 14 14 14 15 15 15 15 15 15 15 15 15 15 15 15 15 15 15 15 15 14 14 14 14 14 14 14 14
13 13 13 13 14 14 14 14 14 14 14 14 14 14 14 14 14 14 14 14 15 15 15 15 15 15 15 15 15 15 15 15 15 15 14 14 14 14 14 14 14 14 14
13 13 13 13 13 14 14 14 14 14 14 14 14 14 14 14 14 14 14 14 14 14 15 14 14 14 14 15 15 14 14 14 14 14 14 14 14 14 14 14 14 14 14
13 13 13 13 13 13 13 13 13 14 13 14 14 14 14 14 14 14 14 14 14 14 14 14 14 14 14 14 14 14 14 14 14 14 14 14 14 14 14 14 14 14 14
13 13 13 13 13 13 13 13 13 13 13 13 13 13 13 14 14 14 14 14 14 14 14 14 14 14 14 14 14 14 14 14 14 14 14 14 14 13 14 14 14 14 13
12 12 12 12 12 13 13 13 13 13 13 13 13 13 13 13 13 13 13 13 13 13 14 14 13 14 13 13 14 14 13 13 14 14 13 13 13 13 13 13 13 13 13
12 12 12 12 12 12 12 12 12 13 13 13 13 13 13 13 13 13 13 13 13 13 13 13 13 13 13 13 13 13 13 13 13 13 13 13 13 13 13 13 13 13 13
11 11 11 11 11 12 12 12 12 12 12 12 12 12 12 12 12 12 13 13 13 13 13 13 13 13 13 13 13 13 13 13 13 13 13 13 13 12 13 13 13 13 13
11 11 11 11 11 11 11 11 11 12 12 12 12 12 12 12 12 12 12 12 12 12 12 12 12 12 13 13 12 12 12 12 12 12 12 12 12 12 12 12 12 12 12
10 10 10 10 11 11 11 11 11 11 11 11 11 11 11 11 11 11 11 11 12 12 12 12 12 12 12 12 12 12 12 12 12 12 12 12 12 12 12 12 12 12 12
10 10 10 10 10 10 11 11 11 11 11 11 10 10 11 11 11 11 11 11 11 11 11 11 11 11 11 12 12 12 12 12 12 12 12 12 12 12 12 12 12 12 12
9 9 9 10 10 10 10 10 10 10 10 10 10 10 10 10 10 10 10 10 10 10 10 10 11 11 11 11 11 11 11 11 11 11 12 11 11 11 11 11 11 11 11
9 9 9 9 9 9 9 9 9 9 9 10 10 10 9 9 9 9 9 9 10 10 10 10 10 10 10 10 11 11 11 11 11 11 11 11 11 11 11 11 11 11 11
8 8 8 9 9 9 9 9 9 9 9 9 9 9 9 9 9 9 9 9 9 9 9 9 9 9 10 10 10 10 10 10 10 11 11 11 11 11 11 10 10 11 11
8 8 8 8 8 8 8 8 8 8 8 8 8 8 8 8 8 8 8 8 8 8 8 8 9 9 9 9 9 9 10 10 10 10 10 10 10 10 10 10 10 10 10
7 7 7 7 7 7 7 7 7 7 7 7 7 7 7 7 7 7 7 7 7 8 8 8 8 8 8 8 9 9 9 9 9 9 9 10 10 10 10 10 10 10 10
6 7 7 7 7 7 7 7 7 7 7 6 6 7 7 7 6 7 7 7 7 7 7 7 7 7 7 8 8 8 8 9 9 9 9 9 9 9 9 9 9 9 9
6 6 6 6 6 6 6 6 6 6 6 6 6 6 6 6 6 6 6 6 6 6 7 7 7 7 7 7 7 7 8 8 8 8 8 8 9 9 9 9 9 9 9
5 5 5 5 5 5 5 5 5 5 5 5 5 5 5 5 5 5 5 6 6 6 6 6 6 6 6 6 6 6 6 7 7 7 8 8 8 8 8 8 8 8 8
5 5 5 5 5 5 5 5 5 5 5 5 5 5 5 5 5 4 5 5 5 5 5 5 5 6 6 6 6 6 6 6 6 6 7 7 7 7 7 8 8 8 8
4 4 4 4 4 4 4 4 4 4 4 4 4 4 4 4 4 4 4 4 4 5 5 5 5 5 5 5 5 5 6 6 5 5 5 6 6 6 6 7 7 7 7
4 4 4 4 4 4 3 3 3 3 3 3 3 3 3 3 3 3 3 3 4 4 4 4 4 4 4 5 5 5 5 5 5 5 5 5 5 6 6 6 6 6 6
3 3 3 3 3 3 3 3 3 3 3 3 3 3 3 3 3 3 3 3 3 3 3 3 3 3 4 4 4 4 4 4 4 5 4 4 5 5 5 5 5 5 5
Wind_Speed
0 1 4 6 7 8 8 9 9 9 9 10 10 9 9 9 8 8 8 8 8 8 8 8 9 9 9 9 10 10 11 11 11 11 10 11 11 12 12 11 11 10 12
1 2 5 7 8 7 8 8 9 9 9 9 9 9 9 9 9 8 7 7 7 7 8 8 8 9 9 9 9 9 10 10 10 10 9 9 10 11 11 11 10 10 11
4 4 6 8 8 8 7 8 8 9 9 9 9 8 8 8 8 8 8 7 6 6 6 7 7 7 8 8 8 9 9 9 9 8 8 7 8 10 10 10 9 10 10
5 5 6 8 9 8 8 9 9 9 9 9 9 8 8 8 8 8 8 7 6 5 6 6 6 6 7 7 7 7 8 8 8 7 6 5 6 8 9 9 9 9 10
6 6 6 8 8 9 9 9 9 9 9 8 8 8 8 8 8 8 8 7 7 6 5 5 5 5 6 7 7 6 7 7 7 6 5 5 5 7 8 8 8 8 9
6 7 7 9 9 9 9 9 9 9 8 8 8 8 7 7 7 7 7 7 7 6 6 5 5 5 5 5 6 6 6 5 5 5 5 5 5 7 8 8 8 8 8
5 7 7 9 9 9 9 9 9 9 8 8 8 8 7 7 7 6 6 6 6 6 5 5 5 4 4 5 5 5 4 5 5 5 4 4 6 8 8 8 8 8 8
6 7 7 8 9 9 9 9 9 8 8 8 8 8 8 7 6 6 6 6 5 5 5 4 5 4 4 4 4 4 3 4 4 4 3 4 6 7 7 7 7 7 7
8 8 8 7 7 8 8 8 9 8 8 8 8 8 8 7 6 5 5 5 5 5 5 4 4 4 4 3 3 3 3 3 4 4 2 3 5 6 6 6 6 6 6
7 7 7 8 7 6 7 8 8 8 8 8 8 8 8 8 7 6 6 5 4 4 4 4 4 4 4 3 2 3 3 3 3 3 2 2 5 5 5 5 5 5 5
6 5 6 7 7 6 6 7 7 7 8 8 8 8 8 8 7 7 6 5 5 5 4 4 5 5 4 3 2 2 2 2 2 2 1 2 5 6 5 5 5 5 5
4 3 4 5 6 6 5 6 6 6 7 8 7 7 7 7 7 7 6 6 5 4 5 5 5 5 5 4 2 2 2 2 2 1 1 2 5 6 5 5 5 6 6
2 2 3 4 5 5 5 5 5 5 6 7 7 7 7 7 7 7 7 6 6 5 5 5 5 5 5 4 3 2 2 1 1 1 1 2 4 5 6 5 6 6 6
3 2 2 4 5 5 5 5 5 5 5 5 5 6 6 5 5 5 5 5 5 4 4 4 4 4 5 4 3 2 2 1 1 1 1 2 4 5 5 6 6 6 6
3 3 3 4 4 4 5 4 5 4 4 5 5 5 5 4 4 4 4 4 5 4 3 3 3 3 3 3 3 2 2 1 1 1 1 1 2 4 5 5 5 5 5
2 2 2 4 5 5 4 4 4 4 4 5 5 5 5 4 3 3 3 3 4 4 3 2 2 2 2 2 2 2 2 1 1 1 1 1 1 2 3 4 4 4 4
2 2 2 3 5 5 5 5 5 5 5 5 5 5 5 4 3 3 2 3 3 4 3 3 3 2 2 2 2 2 2 2 1 1 1 1 1 1 2 2 3 3 4
3 3 3 4 4 4 5 5 5 5 5 5 5 5 6 5 4 3 3 3 4 3 3 2 1 2 2 2 2 2 2 2 1 1 1 1 2 1 1 1 2 2 3
3 3 3 4 3 4 5 5 5 5 5 6 6 6 6 6 5 4 3 3 4 3 2 2 2 1 1 2 2 2 2 2 1 1 2 2 2 2 2 1 0 1 2
3 3 3 3 3 3 3 3 3 4 4 5 5 6 7 6 6 5 3 4 4 2 2 1 1 2 1 1 2 3 3 2 2 1 1 2 2 2 3 3 2 1 2
3 3 3 3 3 2 2 2 2 2 2 3 4 6 6 6 6 5 4 3 3 2 1 1 0 1 1 1 1 2 3 2 1 1 2 2 2 2 3 2 2 2 2
2 3 3 2 2 2 1 1 1 1 1 1 4 5 6 6 6 5 4 2 2 2 2 1 1 0 1 1 1 0 1 3 2 2 1 1 2 2 2 1 2 1 2
2 1 2 2 2 2 2 2 2 2 2 3 3 3 5 5 6 5 4 3 2 1 0 0 0 0 0 1 1 1 1 2 1 2 2 2 2 2 2 2 2 1 1
0 1 1 1 1 2 2 1 1 1 1 2 2 2 4 5 4 4 4 3 3 2 1 1 0 0 1 1 1 1 1 1 1 1 2 2 2 2 2 2 2 3 3
0 0 1 1 1 2 1 1 1 1 1 2 2 3 3 4 4 4 3 3 3 2 1 1 1 0 0 1 1 1 1 1 0 1 2 2 2 2 2 1 2 3 3
1 1 1 1 1 1 1 1 1 1 1 2 3 3 3 3 3 4 3 3 3 2 1 1 1 1 1 1 1 0 0 1 1 1 1 2 2 2 2 1 2 2 3
Wind_Direction
266 358 87 78 73 70 67 63 63 64 63 63 62 63 65 68 73 75 77 79 83 85 88 89 97 96 93 92 95 95 95 94 94 96 97 99 101 101 100 100 96 94 96
140 83 89 81 76 73 71 68 66 65 65 63 62 64 66 65 67 70 76 78 80 83 85 87 91 97 95 94 96 95 98 100 94 88 89 94 101 105 105 105 103 102 99
86 78 84 81 76 70 67 70 70 68 66 64 62 62 66 67 66 64 70 77 80 82 84 87 89 94 96 98 100 97 99 101 99 91 85 86 98 104 107 109 108 107 106
87 79 80 82 79 72 69 70 68 66 65 64 63 62 64 65 65 65 66 68 74 80 84 85 87 92 97 100 101 101 100 102 99 96 90 91 101 108 110 109 107 108 108
75 73 79 79 77 74 72 67 63 63 62 64 66 66 63 61 61 59 58 60 62 65 76 85 90 91 98 104 105 105 101 100 97 95 91 102 109 114 114 114 112 110 111
70 68 76 78 74 72 71 67 61 58 60 62 63 65 64 60 59 57 54 54 57 59 64 69 76 89 94 105 108 111 108 99 92 88 93 110 116 121 118 116 115 113 116
78 69 74 74 73 69 68 66 62 58 57 57 59 61 62 62 58 58 57 55 57 60 61 59 62 71 86 99 109 114 111 102 89 86 96 119 126 126 124 123 122 118 117
85 70 73 73 72 70 67 64 60 58 54 53 55 57 57 56 56 57 57 56 60 63 63 60 60 63 75 94 105 110 104 101 86 83 98 128 139 133 127 128 130 128 127
73 65 57 62 67 67 63 63 61 58 55 52 50 50 51 52 49 50 52 52 57 59 61 60 57 65 66 84 101 98 98 100 84 76 102 133 151 147 139 138 134 133 135
64 59 51 52 54 58 62 60 61 58 55 52 47 47 45 44 42 42 43 44 50 56 54 54 52 56 55 62 82 91 90 89 80 70 84 134 159 157 154 151 147 144 143
58 50 51 49 47 53 64 58 56 56 50 46 44 43 37 35 34 32 35 39 45 48 49 48 42 37 37 53 62 76 77 81 88 71 89 145 173 170 167 164 160 156 156
56 45 45 47 42 48 55 55 51 51 45 39 39 37 35 34 33 29 32 31 32 33 36 37 31 30 34 36 33 54 74 84 89 76 101 172 189 183 177 170 164 164 161
88 60 43 45 40 43 43 51 49 47 43 39 36 31 35 33 30 27 25 20 22 25 30 30 30 33 39 40 40 58 61 89 83 63 105 173 188 189 189 178 168 174 172
76 53 45 43 43 42 49 48 50 43 39 35 28 31 36 30 24 20 20 17 17 15 20 28 36 36 37 37 48 45 43 67 77 60 61 161 187 192 196 189 181 180 183
70 45 34 40 41 41 47 43 44 39 39 31 29 30 38 32 12 9 9 13 11 13 16 20 34 40 36 32 34 32 40 73 76 87 58 124 188 203 202 196 191 187 187
65 51 47 45 39 43 43 42 40 39 36 36 31 23 32 37 19 6 5 5 1 4 9 19 28 40 40 47 30 19 9 34 88 90 83 92 183 202 206 200 197 196 198
76 59 56 56 42 44 40 39 38 38 37 31 27 25 28 29 24 16 4 358 349 357 13 34 40 50 39 37 8 10 14 13 83 105 104 91 90 199 213 205 212 220 216
66 56 46 44 40 39 37 34 33 33 33 27 26 28 29 28 25 27 14 355 350 8 26 30 36 28 8 2 348 340 1 20 28 90 99 98 94 94 161 206 222 244 239
74 61 48 45 47 39 37 31 30 34 32 24 28 28 24 27 26 26 21 2 360 14 26 29 25 31 14 359 351 340 342 352 354 51 77 86 96 104 110 110 61 298 270
74 61 49 41 39 41 43 36 28 29 23 19 18 22 19 19 26 25 20 14 16 17 18 29 36 28 12 358 7 355 339 337 10 22 41 67 79 101 105 99 73 1 305
62 57 48 42 27 35 35 27 23 4 357 358 7 17 18 16 18 25 18 17 14 13 360 12 50 50 13 15 26 358 344 346 7 11 49 57 53 71 88 99 91 59 9
64 50 48 43 33 39 28 350 339 325 322 343 358 8 14 16 14 15 15 7 4 9 18 21 33 45 347 13 50 354 337 345 360 358 19 52 35 50 62 86 101 93 44
50 37 32 21 29 29 31 28 19 18 3 9 1 354 359 11 13 7 359 1 360 6 304 321 26 103 260 332 18 161 185 232 308 339 3 21 22 27 21 57 79 85 80
312 355 26 23 23 15 27 51 48 27 357 325 319 326 341 359 2 3 359 356 353 353 326 284 1 275 173 280 323 347 255 199 212 321 333 356 10 10 356 31 64 52 50
272 1 359 25 16 14 17 37 57 10 334 329 334 334 334 347 349 351 355 347 339 335 305 326 344 337 203 232 264 308 340 338 329 196 279 322 348 348 350 355 74 67 50
24 12 14 31 355 359 6 9 21 355 339 346 340 332 323 322 331 342 350 349 339 330 298 267 252 245 261 280 272 271 195 197 241 205 238 283 301 317 334 358 57 74 52
Height
1529 1530 1530 1530 1530 1530 1530 1530 1529 1529 1529 1528 1528 1528 1528 1528 1528 1528 1528 1528 1528 1529 1529 1529 1529 1529 1529 1529 1530 1530 1530 1530 1530 1531 1531 1532 1532 1532 1532 1532 1533 1533 1534
1528 1529 1529 1529 1529 1530 1530 1530 1529 1529 1529 1528 1528 1528 1528 1528 1528 1528 1528 1528 1528 1529 1529 1529 1530 1530 1530 1530 1530 1530 1530 1531 1531 1531 1532 1532 1533 1533 1533 1533 1533 1534 1534
1528 1528 1529 1529 1529 1529 1530 1529 1529 1529 1529 1528 1528 1528 1528 1528 1528 1528 1528 1528 1528 1529 1529 1529 1530 1530 1530 1530 1530 1530 1531 1531 1531 1532 1532 1532 1533 1533 1533 1534 1534 1534 1534
1528 1528 1528 1529 1529 1529 1529 1529 1529 1529 1528 1528 1528 1528 1528 1528 1528 1527 1527 1528 1528 1528 1529 1529 1529 1529 1530 1530 1530 1531 1531 1531 1531 1532 1532 1532 1533 1533 1533 1534 1534 1534 1534
1527 1527 1528 1528 1528 1528 1529 1528 1528 1528 1528 1528 1528 1528 1527 1527 1527 1527 1527 1527 1527 1528 1528 1528 1529 1529 1529 1530 1530 1530 1531 1531 1531 1532 1532 1532 1533 1533 1533 1533 1534 1534 1534
1527 1527 1527 1528 1528 1528 1528 1528 1528 1528 1527 1527 1527 1527 1527 1527 1526 1526 1526 1526 1527 1527 1527 1527 1528 1529 1529 1529 1529 1530 1530 1531 1531 1531 1532 1532 1532 1532 1533 1533 1533 1534 1534
1526 1527 1527 1527 1527 1527 1527 1527 1527 1527 1527 1527 1526 1526 1526 1526 1526 1526 1525 1525 1526 1526 1526 1527 1527 1528 1528 1528 1529 1529 1530 1530 1530 1530 1531 1531 1532 1532 1532 1532 1533 1533 1534
1525 1526 1527 1527 1527 1527 1527 1527 1527 1527 1526 1526 1526 1525 1525 1525 1525 1525 1525 1525 1525 1525 1525 1526 1526 1526 1527 1527 1528 1528 1529 1529 1529 1530 1530 1531 1531 1531 1532 1532 1532 1533 1533
1525 1525 1526 1526 1526 1526 1526 1526 1526 1526 1526 1525 1525 1524 1524 1524 1524 1524 1524 1524 1524 1524 1524 1525 1525 1525 1525 1526 1526 1527 1527 1528 1528 1529 1529 1530 1530 1531 1531 1531 1531 1532 1532
1524 1524 1525 1525 1525 1525 1525 1525 1525 1525 1524 1524 1524 1523 1523 1523 1522 1522 1522 1522 1522 1522 1523 1523 1523 1523 1524 1524 1525 1525 1526 1526 1527 1527 1528 1528 1529 1530 1530 1530 1530 1531 1531
1523 1523 1524 1524 1524 1524 1524 1524 1524 1524 1523 1523 1522 1522 1522 1521 1521 1521 1521 1521 1521 1521 1521 1521 1521 1522 1522 1522 1523 1523 1524 1525 1525 1526 1526 1527 1527 1528 1529 1529 1529 1529 1530
1522 1522 1523 1523 1523 1523 1523 1523 1522 1522 1522 1521 1521 1520 1520 1520 1519 1519 1519 1519 1519 1519 1519 1519 1519 1519 1520 1520 1521 1521 1522 1522 1523 1524 1524 1525 1526 1526 1527 1527 1528 1528 1529
1521 1521 1521 1522 1521 1521 1521 1521 1521 1520 1520 1520 1519 1519 1518 1518 1518 1517 1517 1517 1517 1517 1517 1517 1517 1517 1517 1518 1518 1519 1519 1520 1520 1521 1522 1523 1523 1524 1525 1525 1526 1526 1527
1520 1520 1521 1520 1520 1520 1519 1519 1519 1519 1518 1518 1518 1517 1516 1516 1516 1515 1515 1515 1515 1514 1514 1514 1515 1515 1515 1516 1516 1516 1517 1517 1518 1519 1519 1520 1521 1522 1522 1523 1524 1524 1525
1519 1519 1519 1519 1519 1518 1518 1517 1517 1517 1517 1516 1516 1515 1514 1514 1514 1513 1513 1513 1512 1512 1512 1512 1512 1513 1513 1514 1514 1514 1514 1515 1515 1516 1516 1517 1518 1519 1520 1520 1521 1522 1522
1518 1518 1518 1517 1517 1517 1516 1516 1515 1515 1515 1514 1514 1513 1512 1512 1511 1511 1511 1510 1510 1510 1510 1510 1510 1510 1511 1511 1511 1511 1511 1512 1512 1513 1514 1515 1515 1516 1517 1518 1519 1519 1520
1517 1517 1516 1516 1515 1515 1514 1514 1513 1513 1512 1512 1511 1511 1510 1509 1509 1509 1508 1508 1508 1507 1507 1507 1508 1508 1508 1508 1508 1508 1509 1509 1510 1510 1511 1511 1512 1513 1514 1515 1516 1517 1517
1515 1515 1515 1514 1514 1513 1513 1512 1512 1511 1511 1510 1509 1508 1507 1507 1506 1506 1506 1505 1505 1505 1505 1505 1505 1505 1505 1505 1505 1506 1506 1506 1507 1507 1508 1508 1509 1510 1512 1512 1513 1514 1514
1514 1513 1513 1512 1512 1512 1511 1510 1510 1509 1508 1508 1507 1506 1505 1504 1504 1503 1503 1503 1503 1502 1502 1502 1502 1502 1502 1502 1502 1503 1503 1504 1504 1505 1505 1506 1506 1507 1508 1509 1510 1511 1511
1512 1512 1511 1511 1510 1510 1509 1508 1508 1507 1506 1506 1505 1503 1502 1502 1501 1501 1500 1500 1500 1499 1499 1500 1500 1500 1500 1500 1500 1500 1500 1501 1501 1502 1502 1503 1503 1504 1505 1506 1507 1508 1508
1510 1510 1509 1509 1508 1507 1507 1506 1505 1504 1504 1503 1502 1501 1501 1500 1499 1498 1498 1497 1497 1497 1497 1497 1497 1497 1497 1497 1497 1497 1497 1498 1498 1499 1499 1500 1500 1501 1502 1502 1503 1504 1505
1508 1507 1507 1507 1506 1506 1505 1504 1504 1503 1502 1501 1501 1500 1499 1498 1497 1496 1495 1495 1494 1494 1494 1494 1494 1494 1494 1495 1495 1495 1495 1496 1495 1496 1496 1497 1497 1498 1498 1499 1499 1500 1501
1506 1506 1505 1505 1504 1504 1503 1503 1502 1501 1500 1499 1498 1497 1497 1496 1495 1494 1493 1492 1492 1491 1491 1491 1492 1492 1492 1492 1493 1494 1493 1492 1493 1493 1493 1494 1494 1495 1495 1495 1496 1497 1498
1505 1505 1504 1503 1503 1502 1501 1501 1499 1498 1497 1496 1496 1495 1495 1494 1493 1492 1491 1490 1489 1489 1489 1489 1489 1489 1490 1489 1490 1490 1491 1491 1491 1490 1491 1491 1492 1492 1493 1493 1493 1494 1494
1504 1503 1502 1502 1501 1500 1500 1499 1498 1497 1496 1495 1494 1493 1492 1491 1490 1489 1488 1487 1487 1486 1486 1486 1486 1487 1487 1487 1487 1487 1487 1488 1488 1489 1488 1489 1489 1490 1490 1490 1490 1491 1491
1502 1501 1500 1499 1499 1498 1497 1497 1496 1495 1494 1493 1492 1491 1490 1489 1488 1487 1486 1485 1484 1484 1483 1483 1483 1484 1484 1485 1485 1485 1485 1485 1486 1486 1486 1486 1486 1487 1487 1488 1488 1488 1488